This demonstration page uses our WeatherBlox Daily Observations layout. Learn more.

Left ArrowRight Arrow

Hourly Observations for August 24, 2020

Temp ( °F °C ) Dew Point ( °F °C ) Humidity (%) Winds ( mph kmh ) Pressure ( in mb ) Visibility ( mi km ) Precip ( " mm )
12:54 am 00:54 Clear 74 23.3 67 19.4 79 79 S 7 11 29.96 1015 10 16.0934 0 0
1:54 am 01:54 Clear 74 23.3 66 18.9 76 76 Calm 29.96 1015 9 14.48406 0 0
2:54 am 02:54 Clear 73 22.8 64 17.8 74 74 S 3 6 29.96 1014 10 16.0934 0 0
3:54 am 03:54 Clear 71 21.7 63 17.2 76 76 SSE 7 11 29.96 1015 10 16.0934 0 0
4:54 am 04:54 Clear 71 21.7 63 17.2 76 76 SSE 6 9 29.97 1015 10 16.0934 0 0
5:54 am 05:54 Clear 70 21.1 62 16.7 76 76 SSE 6 9 29.97 1015 10 16.0934 0 0
6:54 am 06:54 Sunny 68 20 62 16.7 81 81 Calm 29.99 1016 9 14.48406 0 0
7:54 am 07:54 Sunny 70 21.1 63 17.2 79 79 S 7 11 29.99 1016 8 12.87472 0 0
8:54 am 08:54 Sunny 75 23.9 62 16.7 64 64 SSW 6 9 29.99 1016 9 14.48406 0 0
9:54 am 09:54 Sunny 81 27.2 62 16.7 53 53 SSW 10 17 29.99 1016 9 14.48406 0 0
10:54 am 10:54 Sunny 85 29.4 62 16.7 46 46 SW 8 13 30 1016 9 14.48406 0 0
11:54 am 11:54 Sunny 88 31.1 63 17.2 43 43 VRB 5 7 30.01 1016 9 14.48406 0 0
12:54 pm 12:54 Sunny 90 32.2 64 17.8 42 42 S 6 9 30 1016 9 14.48406 0 0
1:54 pm 13:54 Sunny 93 33.9 66 18.9 41 41 S 12 19 29.97 1015 9 14.48406 0 0
2:54 pm 14:54 Sunny 95 35 63 17.2 35 35 S 15 24 29.96 1015 9 14.48406 0 0
3:54 pm 15:54 Sunny 94 34.4 61 16.1 33 33 S 14 22 29.94 1014 9 14.48406 0 0
4:54 pm 16:54 Sunny 94 34.4 63 17.2 36 36 S 16 26 29.93 1014 9 14.48406 0 0
5:54 pm 17:54 Sunny 92 33.3 62 16.7 37 37 SSW 13 20 29.93 1014 9 14.48406 0 0
6:54 pm 18:54 Sunny 90 32.2 63 17.2 41 41 S 9 15 29.93 1014 9 14.48406 0 0
7:54 pm 19:54 Sunny 84 28.9 65 18.3 53 53 S 6 9 29.94 1014 8 12.87472 0 0
8:54 pm 20:54 Clear 78 25.6 66 18.9 67 67 SSE 9 15 29.94 1014 10 16.0934 0 0
9:54 pm 21:54 Clear 76 24.4 65 18.3 69 69 S 8 13 29.96 1014 10 16.0934 0 0
10:54 pm 22:54 Clear 74 23.3 65 18.3 74 74 S 8 13 29.96 1015 10 16.0934 0 0
11:54 pm 23:54 Clear 73 22.8 64 17.8 74 74 S 8 13 29.96 1015 10 16.0934 0 0

Powered by AerisWeather